Weather in Nizhniy Takanysh

Russia / Republic of Tatarstan     55°56′01″N   51°02′52″E
temp.,
°C
wind,
m/s
gust,
m/s
humid.,
%
clouds,
%
prec.,
mm/h
press.,
hPa
HPBL,
m
7 may, fri
fri700:00+9ssw388675 0.0 1016135
03:00+9ssw41181100 0.0 1016219
06:00+11ssw51273100 0.0 1016329
09:00+16ssw61155100 0.0 1015805
12:00+18ssw81145100 0.0 10151983
15:00+17ssw71148100 0.0 10152193
18:00+15ssw486086 0.0 1014254
21:00+11s41171100 0.0 1015180
8 may, sat
sat800:00+11sw3673100 0.0 1015123
03:00+9nw2494100 0.0 1017114
06:00+9n3487100 0.0 1018253
09:00+11ne1180100 0.0 1018339
12:00+16w1262100 0.4 1017784
15:00+16sse126163 2.6 1016553
18:00+16se226418 0.0 101526
21:00+12s22765 0.1 101517
9 may, sun
sun900:00+10se33798 0.0 101544
03:00+9se3584100 0.0 101587
06:00+12se397680 0.0 1015267
09:00+17sse68555 0.0 1014774
12:00+20sse674541 0.0 10142086
15:00+21s574194 0.0 10142277
18:00+18sse3459100 0.0 101457
21:00+15ese3360100 0.0 101531
10 may, mon
mon1000:00+16sse3357100 0.0 101638
03:00+13nw3683100 0.0 1018160
06:00+13n3786100 0.0 1019264
09:00+14nnw558099 0.0 1021501
12:00+16nnw6671100 0.0 1022620
15:00+13n6780100 0.0 1024595
18:00+11n6984100 0.0 1025569
21:00+9n6107943 0.0 1027636
11 may, tue
tue1100:00+8nne510730 0.0 1027585
03:00+5n412875 0.0 1028377
06:00+7nne612720 0.0 1029498
09:00+12ne68445 0.0 1030992
12:00+15ne56365 0.0 10291392
15:00+17nne55355 0.0 10281602
18:00+15ne345255 0.0 102974
21:00+10ne225763 0.0 102910